FW0532 Weather Reports


Display with metric or nautical units.
time (UTC)temp
F
wind
direction
speed
MPH
gust
MPH
rain 1hr
in
rain 24hr
in
rain mn
in
humidity
%
barometer
mb
20260502194329 49 333 6.0 16.0 0.00 0.00 0.00 48 1015.9
20260502193329 49 305 2.0 11.0 0.00 0.00 0.00 58 1016.0
20260502192829 50 5 3.0 13.0 0.00 0.00 0.00 50 1016.2
20260502192329 50 236 1.0 16.0 0.00 0.00 0.00 48 1016.2
20260502191828 50 23 12.0 16.0 0.00 0.00 0.00 50 1016.3
20260502191328 50 39 6.0 15.0 0.00 0.00 0.00 48 1016.2
20260502190327 52 22 4.0 9.0 0.00 0.00 0.00 44 1016.2
20260502185828 52 5 7.0 15.0 0.00 0.00 0.00 49 1016.2
20260502184827 50 355 10.0 13.0 0.00 0.00 0.00 53 1016.2
20260502183827 51 32 4.0 14.0 0.00 0.00 0.00 47 1016.3
20260502183327 51 327 6.0 14.0 0.00 0.00 0.00 50 1016.5
20260502182826 51 26 2.0 13.0 0.00 0.00 0.00 57 1016.5
20260502182326 50 336 6.0 13.0 0.00 0.00 0.00 48 1016.4
20260502181826 49 317 4.0 13.0 0.00 0.00 0.00 57 1016.4
20260502181326 50 23 9.0 13.0 0.00 0.00 0.00 47 1016.4
20260502180827 50 355 1.0 10.0 0.00 0.00 0.00 52 1016.3
20260502180326 50 5 2.0 10.0 0.00 0.00 0.00 47 1016.4
20260502164324 48 316 6.0 7.0 0.00 0.00 0.00 52 1016.8
20260502163824 49 289 2.0 7.0 0.00 0.00 0.00 52 1016.9
20260502163323 50 329 5.0 11.0 0.00 0.00 0.00 56 1017.1
20260502162823 49 322 2.0 11.0 0.00 0.00 0.00 52 1017.2
20260502161822 49 302 7.0 16.0 0.00 0.00 0.00 55 1017.2
20260502161322 49 360 13.0 16.0 0.00 0.00 0.00 54 1017.2
20260502160822 48 10 1.0 11.0 0.00 0.00 0.00 61 1017.2
20260502160322 48 320 6.0 14.0 0.00 0.00 0.00 56 1017.1
20260502152321 47 338 5.0 12.0 0.00 0.00 0.00 60 1017.1
20260502151821 47 5 1.0 12.0 0.00 0.00 0.00 59 1017.3
20260502150820 47 309 4.0 14.0 0.00 0.01 0.00 59 1017.3
20260502150320 47 330 3.0 14.0 0.00 0.01 0.00 59 1017.3
20260502123816 39 331 2.0 6.0 0.00 0.08 0.00 71 1016.4
20260502123316 39 306 2.0 6.0 0.00 0.08 0.00 74 1016.4
20260502122815 38 360 2.0 5.0 0.00 0.08 0.00 73 1016.5
20260502122315 38 323 1.0 6.0 0.00 0.08 0.00 74 1016.5
20260502121816 38 25 2.0 6.0 0.00 0.09 0.00 73 1016.4
20260502121315 37 324 1.0 6.0 0.00 0.09 0.00 75 1016.3
20260502120815 37 343 3.0 6.0 0.00 0.10 0.00 75 1016.3
20260502120315 37 333 3.0 6.0 0.00 0.10 0.00 75 1016.2
20260502115314 36 311 6.0 7.0 0.00 0.10 0.00 75 1016.2
20260502114815 36 360 4.0 7.0 0.00 0.10 0.00 76 1016.1
20260502114314 36 355 0.0 7.0 0.00 0.10 0.00 77 1016.0
20260502113814 36 334 3.0 5.0 0.00 0.10 0.00 77 1016.0
20260502113314 35 5 0.0 4.0 0.00 0.10 0.00 78 1016.0
20260502112814 35 5 0.0 4.0 0.00 0.10 0.00 78 1016.0
20260502112313 35 313 1.0 4.0 0.00 0.11 0.00 80 1016.0
20260502111813 35 313 0.0 4.0 0.00 0.11 0.00 80 1015.9
20260502110813 34 338 0.0 0.0 0.00 0.11 0.00 81 1015.8
20260502110313 34 338 0.0 0.0 0.00 0.11 0.00 82 1015.8
20260502105813 34 338 0.0 4.0 0.00 0.11 0.00 82 1015.9
20260502105313 34 320 0.0 4.0 0.00 0.11 0.00 84 1015.9
20260502104812 34 350 0.0 3.0 0.00 0.11 0.00 84 1015.7
20260502104312 33 355 2.0 2.0 0.00 0.11 0.00 85 1015.8
20260502103812 34 355 0.0 2.0 0.00 0.11 0.00 85 1015.8
20260502102812 34 15 0.0 0.0 0.00 0.11 0.00 85 1015.7
20260502102311 34 54 0.0 2.0 0.00 0.11 0.00 85 1015.6
20260502101811 34 58 0.0 2.0 0.00 0.11 0.00 85 1015.6
20260502101311 34 355 0.0 1.0 0.00 0.11 0.00 86 1015.6
20260502100811 34 355 0.0 0.0 0.00 0.11 0.00 85 1015.6
20260502100311 34 355 0.0 0.0 0.00 0.11 0.00 85 1015.7
20260502091309 37 5 0.0 3.0 0.00 0.11 0.00 78 1015.7
20260502090809 38 5 0.0 4.0 0.00 0.11 0.00 77 1015.8
20260502090309 38 355 2.0 5.0 0.00 0.11 0.00 76 1015.8
20260502071305 37 344 2.0 3.0 0.00 0.11 0.00 83 1015.4
20260502070806 37 273 0.0 0.0 0.00 0.11 0.00 84 1015.4
20260502070305 38 273 0.0 2.0 0.00 0.11 0.00 82 1015.6
20260502065805 38 273 0.0 2.0 0.00 0.11 0.00 82 1015.5
20260502065306 37 273 0.0 1.0 0.00 0.11 0.00 84 1015.5
20260502064805 37 273 0.0 0.0 0.00 0.11 0.00 83 1015.7
20260502064305 37 273 0.0 0.0 0.00 0.11 0.00 84 1015.7
20260502063805 37 273 0.0 0.0 0.00 0.11 0.00 84 1015.7
20260502063304 38 273 0.0 0.0 0.00 0.11 0.00 84 1015.7
20260502062306 39 273 0.0 0.0 0.00 0.11 0.00 81 1015.8
20260502060804 40 273 0.0 0.0 0.00 0.11 0.00 79 1015.7
20260502055305 40 273 0.0 3.0 0.00 0.11 0.00 78 1015.8
20260502054803 40 273 1.0 3.0 0.00 0.11 0.00 78 1015.9
20260502054303 39 315 1.0 1.0 0.00 0.11 0.00 81 1015.8
20260502053803 39 315 0.0 1.0 0.00 0.11 0.00 82 1015.7
20260502053302 39 315 0.0 0.0 0.00 0.11 0.00 84 1015.8
20260502052803 39 315 0.0 1.0 0.00 0.11 0.00 83 1015.8
20260502052305 38 315 0.0 1.0 0.00 0.11 0.00 83 1015.8
20260502051802 38 315 0.0 0.0 0.00 0.11 0.00 83 1015.8
20260502050302 39 315 0.0 3.0 0.00 0.11 0.00 78 1015.9
20260502045802 38 350 0.0 3.0 0.00 0.11 0.00 79 1015.7
20260502044801 38 350 0.0 3.0 0.00 0.11 0.00 80 1015.7
20260502043801 39 329 0.0 2.0 0.00 0.11 0.00 78 1015.8
20260502042801 39 329 0.0 1.0 0.00 0.11 0.00 78 1015.7
20260502042301 39 329 0.0 1.0 0.00 0.11 0.00 79 1015.8
20260502041330 38 329 0.0 2.0 0.00 0.11 0.00 80 1015.8
20260502040830 39 329 0.0 3.0 0.00 0.11 0.00 78 1015.7
20260502040330 40 329 0.0 3.0 0.00 0.11 0.00 75 1015.8
20260502035830 40 329 0.0 3.0 0.00 0.11 0.11 75 1015.9
20260502035330 41 9 0.0 3.0 0.00 0.11 0.11 74 1016.0
20260502034329 40 294 0.0 5.0 0.00 0.11 0.11 74 1015.8
20260502033829 41 328 0.0 5.0 0.00 0.11 0.11 74 1015.9
20260502033329 41 292 0.0 6.0 0.00 0.11 0.11 74 1015.8
20260502032829 40 321 0.0 6.0 0.00 0.11 0.11 76 1015.7
20260502032329 39 21 2.0 5.0 0.00 0.11 0.11 80 1015.7
20260502031328 38 346 1.0 3.0 0.00 0.11 0.11 83 1015.8
20260502030828 38 309 1.0 1.0 0.00 0.11 0.11 85 1015.8
20260502030328 38 309 0.0 0.0 0.00 0.11 0.11 85 1015.8
20260502025828 38 309 0.0 0.0 0.00 0.11 0.11 86 1015.9
20260502025328 38 309 0.0 0.0 0.00 0.11 0.11 87 1015.8
20260502024827 38 309 0.0 0.0 0.00 0.11 0.11 86 1015.8
20260502024328 38 309 0.0 0.0 0.00 0.11 0.11 86 1015.9
20260502023827 39 309 0.0 0.0 0.00 0.11 0.11 86 1015.7
20260502023327 39 309 0.0 0.0 0.00 0.11 0.11 86 1015.6
20260502022827 39 309 0.0 0.0 0.00 0.11 0.11 85 1015.6
20260502022327 40 309 0.0 1.0 0.00 0.11 0.11 86 1015.7
20260502021827 40 309 0.0 2.0 0.00 0.11 0.11 85 1015.7
20260502021327 40 309 0.0 2.0 0.00 0.11 0.11 83 1015.5
20260502020826 40 311 0.0 2.0 0.00 0.11 0.11 85 1015.4
20260502020326 41 311 0.0 4.0 0.00 0.11 0.11 82 1015.3
20260502014826 41 18 1.0 7.0 0.00 0.11 0.11 86 1014.8
20260502014325 40 334 0.0 2.0 0.00 0.11 0.11 89 1014.7
20260502013825 39 327 0.0 0.0 0.00 0.11 0.11 89 1014.6
20260502013325 39 327 0.0 0.0 0.00 0.11 0.11 88 1014.5
20260502012325 40 327 0.0 0.0 0.00 0.11 0.11 86 1014.6
20260502011825 40 327 0.0 0.0 0.00 0.11 0.11 85 1014.4
20260502011325 40 327 0.0 0.0 0.00 0.11 0.11 85 1014.3
20260502010824 40 327 0.0 0.0 0.00 0.11 0.11 85 1014.3
20260502005824 41 327 0.0 1.0 0.00 0.11 0.11 83 1014.2
20260502004824 42 327 0.0 1.0 0.00 0.11 0.11 81 1014.0
20260502004324 43 327 0.0 1.0 0.00 0.11 0.11 79 1014.1
20260502003824 43 327 0.0 3.0 0.00 0.11 0.11 76 1014.0
20260502003324 44 327 0.0 7.0 0.00 0.11 0.11 74 1014.1
20260502002823 45 5 1.0 10.0 0.00 0.11 0.11 72 1014.0
20260502002323 46 355 1.0 10.0 0.00 0.11 0.11 71 1014.1
20260502001823 46 360 5.0 14.0 0.00 0.11 0.11 70 1014.1
20260502000823 48 337 2.0 9.0 0.00 0.11 0.11 67 1014.2
20260502000324 49 17 3.0 9.0 0.00 0.11 0.11 66 1014.4
20260501235823 49 259 2.0 9.0 0.00 0.11 0.11 66 1014.2
20260501235322 48 297 2.0 7.0 0.00 0.11 0.11 66 1014.2
20260501234822 48 30 1.0 6.0 0.00 0.11 0.11 67 1014.2
20260501234322 48 5 0.0 5.0 0.00 0.11 0.11 66 1014.0
20260501233822 48 5 0.0 6.0 0.00 0.11 0.11 66 1013.9
20260501232822 49 312 2.0 10.0 0.00 0.11 0.11 63 1013.7
20260501231321 50 322 6.0 10.0 0.00 0.11 0.11 63 1013.8
20260501230821 50 294 3.0 13.0 0.00 0.11 0.11 62 1013.8
20260501230321 50 42 3.0 13.0 0.00 0.11 0.11 62 1013.8
20260501225821 49 338 2.0 13.0 0.00 0.11 0.11 61 1013.8
20260501225321 50 332 10.0 14.0 0.00 0.11 0.11 63 1013.8
20260501224820 50 22 3.0 14.0 0.00 0.11 0.11 63 1013.9
20260501224320 50 303 9.0 12.0 0.00 0.11 0.11 62 1013.7
20260501223820 50 295 11.0 12.0 0.00 0.11 0.11 61 1013.7
20260501223320 51 277 6.0 12.0 0.00 0.11 0.11 60 1013.7
20260501222819 52 306 2.0 7.0 0.00 0.11 0.11 61 1013.7
20260501222319 52 22 5.0 5.0 0.00 0.11 0.11 62 1013.7
20260501221819 51 9 2.0 6.0 0.00 0.11 0.11 63 1013.6
20260501221319 51 15 4.0 7.0 0.00 0.11 0.11 64 1013.6
20260501220819 51 345 1.0 10.0 0.00 0.11 0.11 62 1013.6
20260501220319 51 301 1.0 10.0 0.00 0.11 0.11 62 1013.6
20260501215818 51 302 3.0 12.0 0.00 0.11 0.11 61 1013.7
20260501214818 51 336 3.0 6.0 0.00 0.11 0.11 60 1013.7
20260501214318 51 279 3.0 6.0 0.00 0.11 0.11 60 1013.7
20260501213818 51 267 2.0 10.0 0.00 0.11 0.11 62 1013.7
20260501213318 51 304 1.0 10.0 0.00 0.11 0.11 63 1013.8
20260501212818 52 314 1.0 10.0 0.00 0.11 0.11 63 1013.8
20260501212317 52 304 2.0 9.0 0.00 0.11 0.11 65 1013.7
20260501211817 51 11 0.0 9.0 0.00 0.11 0.11 65 1013.8
20260501210817 51 303 0.0 7.0 0.00 0.11 0.11 64 1013.9
20260501210317 51 336 7.0 9.0 0.00 0.11 0.11 63 1013.9
20260501205317 51 5 3.0 10.0 0.00 0.11 0.11 64 1013.7
20260501204816 50 326 1.0 10.0 0.00 0.11 0.11 63 1013.6
20260501204316 50 332 9.0 10.0 0.00 0.11 0.11 63 1013.7
20260501203316 51 307 2.0 10.0 0.00 0.11 0.11 62 1013.7
20260501202816 51 315 5.0 9.0 0.00 0.11 0.11 65 1013.8
20260501202316 52 282 1.0 7.0 0.00 0.11 0.11 66 1013.7
20260501201816 51 19 3.0 7.0 0.00 0.11 0.11 68 1013.7
20260501201315 51 46 4.0 7.0 0.00 0.11 0.11 65 1013.7
20260501200315 50 330 2.0 17.0 0.00 0.11 0.11 65 1013.8
20260501195815 50 351 11.0 17.0 0.00 0.11 0.11 62 1013.7